Location: Newark
(59.4564°N, 26.6917°E)
Time: 02:26:49
(UTC+00:00)

SR - Pass Details

Date: 26 November 2019
Orbit: 573 x 882 km, 66.7° (Epoch: 06 December)

Event Time Altitude Azimuth Distance (km) Brightness Sun altitude
Rises 09:49:23 0° 151° (SSE) 3,278 ? 9.6°
Reaches altitude 10° 09:53:33 10° 119° (ESE) 2,427 ? 9.6°
Maximum altitude 09:55:20 12° 101° (E) 2,345 ? 9.6°
Drops below altitude 10° 09:57:09 10° 82° (E) 2,482 ? 9.6°
Sets 10:01:33 0° 52° (NE) 3,469 ? 9.6°
